Regional Weather Roundup
Issued by NWS Kansas City/Pleasant Hill, MO

Home | Current Version | Previous Version | Text Only | Print | Product List | Glossary On
Versions: 1 2 3 4 5 6 7 8 9 10 11 12 13 14 15 16 17 18 19 20 21 22 23 24 25 26 27
000
ASUS43 KEAX 271310
RWREAX

WEATHER ROUNDUP FOR EASTERN KANSAS AND NORTHWEST MISSOURI
NATIONAL WEATHER SERVICE KANSAS CITY/PLEASANT HILL MO
800 AM CDT TUE JUN 27 2017

KSZ040-057-103>105-MOZ028-029-037-043-271400-
...KANSAS CITY METROPOLITAN AREA...

CITY           SKY/WX    TMP DP  RH WIND       PRES   REMARKS
K.C. INTL      MOSUNNY   63  59  87 SE12      30.12S
K.C. DOWNTOWN  SUNNY     64  60  87 E5        30.12S
LEES SUMMIT    SUNNY     62  61  96 SE6       30.13S
OLATHE - IXD   SUNNY     62  57  83 SE14      30.12S
OLATHE - OJC   SUNNY     61  59  93 SE8       30.12S
LAWRENCE       SUNNY     62  60  93 E7        30.11S

$$

MOZ001>008-011>017-020>025-030>033-038>040-044>046-053-054-271400-
...NORTHERN AND CENTRAL MISSOURI...

CITY           SKY/WX    TMP DP  RH WIND       PRES   REMARKS
ST. JOSEPH     SUNNY     58  58 100 CALM      30.12S
MOSBY          SUNNY     57  57 100 CALM      30.12S
WARRENSBURG    SUNNY     59  59 100 E3        30.13S
WHITEMAN AFB   NOT AVBL
CLINTON        CLOUDY    64  59  82 SE7       30.14S
SEDALIA        SUNNY     63  62  97 SE6       30.15S
WARSAW         NOT AVBL
CHILLICOTHE      N/A     62  60  93 CALM      30.15S
KIRKSVILLE     SUNNY     61  53  75 SE7       30.16S

$$

MOZ041-047>049-056>058-063>065-088>090-097-271400-
...EASTERN AND SOUTHERN MISSOURI...

CITY           SKY/WX    TMP DP  RH WIND       PRES   REMARKS
ST. LOUIS INTL SUNNY     67  57  70 CALM      30.17R
SPIRIT OF STL  MOSUNNY   59  59 100 W3        30.16R
COLUMBIA       SUNNY     63  60  90 E3        30.16S
JEFFERSON CITY FOG       58  58 100 E5        30.15S VSB 1/4
ROLLA          SUNNY     62  59  90 E8        30.15S
OSAGE BEACH    SUNNY     60  58  92 S5        30.16S
SPRINGFIELD    PTSUNNY   62  60  93 SE8       30.13S
BRANSON        MOSUNNY   64  59  82 E8        30.15R
JOPLIN         SUNNY     66  63  90 E5        30.11S
WEST PLAINS    MOSUNNY   63  60  90 E5        30.16S

$$

IAZ060-094-KSZ022-034>040-054-083-096-NEZ052-066-093-271400-
...KANSAS...SOUTHEAST NEBRASKA AND IOWA...

CITY           SKY/WX    TMP DP  RH WIND       PRES   REMARKS
TOPEKA         SUNNY     63  60  90 E8        30.09F
MANHATTAN      SUNNY     63  59  87 E6        30.07F
EMPORIA        CLOUDY    61  61 100 SE8       30.08S FOG
CHANUTE        CLOUDY    64  63  96 E7        30.09F
WICHITA        LGT RAIN  66  64  93 SE12      30.04F
OMAHA          MOSUNNY   61  50  67 SE10      30.11S
LINCOLN        SUNNY     60  57  89 S7        30.10F
FALLS CITY     SUNNY     58  58 100 SE6       30.10F
LAMONI         SUNNY     60  49  66 E3        30.14F
DES MOINES     MOSUNNY   59  48  67 S7        30.15S

$$





USA.gov is the U.S. government's official web portal to all federal, state and local government web resources and services.